Regional Weather Roundup
Issued by NWS Cleveland, OH

Home | Current Version | Previous Version | Text Only | Print | Product List | Glossary On
Versions: 1 2 3 4 5 6 7 8 9 10 11 12 13 14 15 16 17 18 19 20 21 22 23 24 25 26 27 28 29 30 31 32 33 34 35 36 37 38 39 40 41 42 43 44 45 46 47 48 49 50
116
ASUS41 KCLE 281412
RWRCLE
OHIO REGIONAL WEATHER ROUNDUP
NATIONAL WEATHER SERVICE WILMINGTON, OH
1000 AM EDT WED JUN 28 2017

NOTE: "FAIR" INDICATES FEW OR NO CLOUDS BELOW 12,000 FEET WITH NO
SIGNIFICANT WEATHER AND/OR OBSTRUCTIONS TO VISIBILITY.

OHZ001>008-015>018-024>027-034-035-043-044-281500-
   NORTHWEST OHIO

CITY           SKY/WX    TMP DP  RH WIND       PRES   REMARKS
DEFIANCE       FAIR      67  51  56 S10       30.12S
FINDLAY        FAIR      71  50  47 SW9       30.13S
TOLEDO EXPRESS FAIR      69  53  56 S7        30.12S
TOLEDO EXEC    FAIR      71  51  49 SW10      30.13F
LIMA           FAIR      69  53  56 SW8       30.15R
$$

OHZ009>014-019>023-028>033-038-089-281500-
   NORTHEAST OHIO

CITY           SKY/WX    TMP DP  RH WIND       PRES   REMARKS
CLE-HOPKINS    FAIR      71  51  49 SW8       30.17F
CLE-LAKEFRONT  FAIR      71  49  45 W6        30.13F
CUY CO. ARPT   SUNNY     70  45  40 W12       30.17R
LORAIN-ELYRIA  FAIR      68  47  46 W7        30.15F
ASHTABULA      FAIR      67  55  65 W8        30.17R
AKRON-CANTON   FAIR      68  48  48 W8        30.18F
WOOSTER        FAIR      68  49  50 SW6       30.18F
MANSFIELD      FAIR      69  48  47 S9        30.17F
YOUNGSTOWN     FAIR      68  49  50 W10       30.18S
$$

OHZ042-051>053-060>062-070>072-077>081-281500-
  SOUTHWEST OHIO

CITY           SKY/WX    TMP DP  RH WIND       PRES   REMARKS
CINC-COVINGTON PTSUNNY   70  55  59 S9        30.17S
CINC-LUNKEN    FAIR      68  58  70 SW6       30.18F
HAMILTON       FAIR      72  56  57 VRB5      30.17S
DAYTON         PTSUNNY   68  51  54 S13       30.18R
WRIGHT-PAT AFB FAIR      69  53  56 S8        30.17R
DAYTON GENERAL FAIR      68  53  58 S9        30.17S
WILMINGTON     FAIR      69  55  60 S9        30.18S
$$

OHZ036-037-039>041-045>050-054>059-063>069-073>076-082>088-281500-
  CENTRAL AND SOUTHEAST OHIO

CITY           SKY/WX    TMP DP  RH WIND       PRES   REMARKS
COLUMBUS       FAIR      68  54  60 S5        30.17F
OSU AIRPORT    FAIR      69  54  58 S9        30.17F
BOLTON FIELD   SUNNY     66  55  68 S7        30.18F
RICKENBACK AFB FAIR      66  55  66 S6        30.18F
NEWARK         FAIR      69  51  52 SW6       30.17F
MARION         FAIR      68  50  52 S8        30.16F
LANCASTER      FAIR      68  53  58 S8        30.18F
ZANESVILLE     FAIR      66  54  65 CALM      30.18F
NEW PHILLY     FAIR      67  54  63 CALM      30.20F
$$




USA.gov is the U.S. government's official web portal to all federal, state and local government web resources and services.